Location: Ottawa
(45.4170°N, 75.7000°W)
Time: 04:51:25
(UTC-04:00)

Amateur Radio Satellites - All Passes

Search period start: 24 June 2017 04:21
Search period end: 25 June 2017 04:21
Location: Ottawa, 45.4170°N, 75.7000°W

Satellite Date Start Highest point End Downlink Frequencies (MHz)
Time Altitude Azimuth
AO-7 24 Jun 04:24:22 04:32:34 54° 102° (ESE) 04:40:42 .
BEESAT 3 24 Jun 04:28:03 04:29:18 11° 30° (NNE) 04:30:34 437.485
CUBESAT XI-V 24 Jun 04:36:07 04:40:45 75° 75° (ENE) 04:45:24 437.345
Oscar 19 24 Jun 04:37:54 04:39:56 12° 305° (NW) 04:41:59 437.125/150
STARS 24 Jun 04:46:09 04:50:00 31° 67° (ENE) 04:53:53 437.465
NO-84 24 Jun 04:47:56 04:52:15 53° 30° (NNE) 04:56:30 435.350 FM
AO-85 24 Jun 04:58:20 05:01:47 26° 43° (NE) 05:05:23 145.980
RS-15 24 Jun 05:05:40 05:17:34 50° 37° (NE) 05:28:53 29.354- 29.394
ITAMSAT 1 24 Jun 05:08:56 05:14:06 60° 289° (WNW) 05:19:13 435.822/435.867
BEESAT 2 24 Jun 05:22:12 05:24:16 13° 33° (NNE) 05:26:19 435.950
DOVE 4 24 Jun 05:32:00 05:34:59 16° 90° (E) 05:38:02 437.250
KKS-1 24 Jun 05:47:49 05:51:38 28° 264° (W) 05:55:30 437.445
CUTE-I 24 Jun 06:01:27 06:03:47 13° 87° (E) 06:06:06 437.470
BEESAT 3 24 Jun 06:03:49 06:07:47 54° 50° (NE) 06:11:41 437.485
STRAND 1 24 Jun 06:06:29 06:09:38 17° 58° (ENE) 06:12:48 437.568
CUBESAT XI-V 24 Jun 06:16:41 06:18:40 13° 272° (W) 06:20:39 437.345
AO-7 24 Jun 06:17:30 06:25:07 41° 302° (WNW) 06:32:43 .
STARS 24 Jun 06:22:34 06:26:20 28° 264° (W) 06:30:08 437.465
NO-84 24 Jun 06:25:49 06:29:44 32° 228° (SW) 06:33:30 435.350 FM
NUDT-PHONESAT 24 Jun 06:32:35 06:35:08 17° 92° (E) 06:37:40 437.300
AO-85 24 Jun 06:38:24 06:42:17 40° 241° (WSW) 06:46:23 145.980
XW-2F 24 Jun 06:42:02 06:45:19 28° 96° (E) 06:48:34 145.980 - 146.000
XW-2D 24 Jun 06:44:39 06:48:06 32° 97° (E) 06:51:29 145.860 - 145.880
LilacSat-2 24 Jun 06:50:39 06:54:15 39° 98° (E) 06:57:49 437.200
XW-2B 24 Jun 06:53:30 06:57:05 40° 98° (E) 07:00:38 145.730 - 145.750
BEESAT 2 24 Jun 06:58:41 07:02:46 71° 53° (NE) 07:06:48 435.950
DOVE 4 24 Jun 07:08:14 07:13:02 67° 286° (WNW) 07:18:04 437.250
XW-2C 24 Jun 07:08:46 07:12:33 63° 101° (ESE) 07:16:16 145.795 - 145.815
YUBILEINY 24 Jun 07:18:30 07:22:24 13° 50° (NE) 07:26:17 435.215
RS-15 24 Jun 07:18:43 07:30:39 65° 244° (WSW) 07:41:59 29.354- 29.394
KAITUO 1B 24 Jun 07:27:17 07:31:01 82° 103° (ESE) 07:34:42 145.475/437.950
CUTE-I 24 Jun 07:39:08 07:44:34 90° 324° (NW) 07:49:57 437.470
BEESAT 3 24 Jun 07:42:25 07:44:58 16° 249° (WSW) 07:47:29 437.485
STRAND 1 24 Jun 07:43:03 07:48:11 77° 257° (WSW) 07:53:22 437.568
O/OREOS (USA 219) 24 Jun 07:43:13 07:47:39 59° 63° (ENE) 07:52:02 437.305
XW-2A 24 Jun 07:49:15 07:51:38 18° 93° (E) 07:53:59 145.665 - 145.685
FO-29 24 Jun 07:51:23 07:53:52 12° 46° (NE) 07:56:27 435.910
NUDT-PHONESAT 24 Jun 08:05:46 08:09:09 34° 289° (WNW) 08:12:31 437.300
HO-68 24 Jun 08:11:56 08:18:55 52° 100° (E) 08:25:51 435.675
AO-7 24 Jun 08:13:13 08:15:36 11° 326° (NW) 08:17:58 .
XW-2F 24 Jun 08:16:21 08:19:20 22° 293° (WNW) 08:22:16 145.980 - 146.000
XW-2D 24 Jun 08:19:17 08:22:05 20° 294° (WNW) 08:24:51 145.860 - 145.880
LilacSat-2 24 Jun 08:25:44 08:28:14 17° 295° (WNW) 08:30:44 437.200
SEEDS 24 Jun 08:25:59 08:30:00 44° 98° (E) 08:33:58 437.485
XW-2B 24 Jun 08:28:30 08:30:58 17° 295° (WNW) 08:33:25 145.730 - 145.750
CUBEBUG 2 24 Jun 08:34:04 08:38:39 46° 98° (E) 08:43:06 437.445
M-CUBED/EXP-1 PRIME 24 Jun 08:36:01 08:38:39 22° 63° (ENE) 08:41:16 437.505
AO-73 24 Jun 08:37:10 08:39:50 16° 89° (E) 08:42:28 145.935
BEESAT 2 24 Jun 08:38:09 08:39:57 13° 251° (WSW) 08:41:45 435.950
CUTE 1.7 + AOD 2 24 Jun 08:40:08 08:44:22 81° 284° (WNW) 08:48:33 437.475
PRISM 24 Jun 08:44:38 08:46:19 12° 60° (ENE) 08:48:01 437.425
XW-2C 24 Jun 08:44:51 08:46:13 12° 298° (WNW) 08:47:35 145.795 - 145.815
UNISAT 6 24 Jun 09:02:36 09:06:01 21° 63° (ENE) 09:09:29 437.425
Oscar 11 24 Jun 09:05:41 09:09:08 23° 93° (E) 09:12:33 .
ZACube-1 24 Jun 09:10:06 09:14:17 37° 97° (E) 09:18:20 437.345
UWE-3 24 Jun 09:11:14 09:15:51 67° 101° (E) 09:20:21 435.000/436.395/437.385
YUBILEINY 24 Jun 09:12:50 09:21:34 58° 75° (ENE) 09:30:11 435.215
CUTE-I 24 Jun 09:20:52 09:23:51 15° 304° (WNW) 09:26:50 437.470
XW-2A 24 Jun 09:21:25 09:24:26 29° 290° (WNW) 09:27:24 145.665 - 145.685
AAUSAT CUBESAT 2 24 Jun 09:21:51 09:25:58 88° 103° (ESE) 09:30:05 437.432
O/OREOS (USA 219) 24 Jun 09:23:56 09:26:32 15° 261° (W) 09:29:08 437.305
DELFI C3 24 Jun 09:30:54 09:31:20 10° 88° (E) 09:31:48 145.870
FO-29 24 Jun 09:31:22 09:37:16 57° 68° (ENE) 09:44:02 435.910
RS-15 24 Jun 09:34:34 09:40:24 15° 267° (W) 09:46:09 29.354- 29.394
Tancredo 1 24 Jun 09:37:08 09:40:08 66° 148° (SSE) 09:43:10 437.200
ISS 24 Jun 09:37:28 09:40:30 35° 142° (SE) 09:43:33 437.550
TIGRISAT 24 Jun 09:56:07 10:00:38 60° 73° (ENE) 10:05:15 435.000
HO-68 24 Jun 10:00:02 10:06:25 36° 300° (WNW) 10:12:46 435.675
SEEDS 24 Jun 10:02:29 10:05:22 18° 296° (WNW) 10:08:14 437.485
M-CUBED/EXP-1 PRIME 24 Jun 10:10:29 10:13:06 21° 259° (WSW) 10:15:41 437.505
CUBEBUG 2 24 Jun 10:11:17 10:14:56 22° 296° (WNW) 10:18:32 437.445
AO-73 24 Jun 10:12:03 10:16:27 56° 287° (WNW) 10:20:44 145.935
PRISM 24 Jun 10:17:01 10:21:04 70° 258° (WSW) 10:25:07 437.425
QB50P2 24 Jun 10:23:49 10:24:09 10° 58° (ENE) 10:24:29 145.880/145.840
UNISAT 6 24 Jun 10:37:56 10:42:22 49° 261° (W) 10:46:56 437.425
Oscar 11 24 Jun 10:41:24 10:45:22 36° 290° (WNW) 10:49:17 .
EO-79 24 Jun 10:46:23 10:48:59 16° 62° (ENE) 10:51:35 145.935-145.965
ZACube-1 24 Jun 10:46:43 10:50:22 25° 295° (WNW) 10:53:56 437.345
UWE-3 24 Jun 10:49:00 10:51:45 16° 299° (WNW) 10:54:27 435.000/436.395/437.385
EO-88 24 Jun 10:50:10 10:53:46 56° 100° (E) 10:57:21 145.990 - 145.960
AAUSAT CUBESAT 2 24 Jun 11:00:19 11:00:45 10° 301° (WNW) 11:01:12 437.432
DUCHIFAT 1 24 Jun 11:01:49 11:04:45 19° 63° (ENE) 11:07:42 145.980
DELFI C3 24 Jun 11:02:39 11:06:34 69° 285° (WNW) 11:10:29 145.870
NANOSAT C BR1 24 Jun 11:08:57 11:12:21 24° 66° (ENE) 11:15:46 145.865
YUBILEINY 24 Jun 11:10:16 11:17:55 35° 277° (W) 11:25:33 435.215
Tancredo 1 24 Jun 11:13:10 11:15:55 30° 346° (NNW) 11:18:41 437.200
ISS 24 Jun 11:13:47 11:16:57 44° 340° (NNW) 11:20:09 437.550
FO-29 24 Jun 11:17:49 11:22:50 27° 271° (W) 11:28:25 435.910
LO-87 24 Jun 11:18:40 11:21:05 17° 92° (E) 11:23:29 145.935 - 145.965
AIST 2D 24 Jun 11:32:13 11:35:48 89° 263° (W) 11:39:22 435.315
TIGRISAT 24 Jun 11:34:55 11:37:43 16° 271° (W) 11:40:34 435.000
POLYITAN 1 24 Jun 11:44:16 11:48:27 60° 74° (ENE) 11:52:42 437.675
QB50P2 24 Jun 11:54:56 11:59:12 85° 76° (ENE) 12:03:31 145.880/145.840
PCSat 24 Jun 11:57:10 12:01:18 23° 107° (ESE) 12:05:27 145.827
BUGSAT 1 24 Jun 12:16:47 12:20:31 33° 68° (ENE) 12:24:17 437.445
EO-79 24 Jun 12:20:07 12:24:18 57° 259° (W) 12:28:32 145.935-145.965
EO-88 24 Jun 12:25:32 12:26:59 12° 298° (WNW) 12:28:27 145.990 - 145.960
DUCHIFAT 1 24 Jun 12:36:00 12:40:05 47° 261° (W) 12:44:12 145.980
Oscar 19 24 Jun 12:37:10 12:41:26 27° 64° (ENE) 12:45:43 437.125/150
NANOSAT C BR1 24 Jun 12:44:00 12:47:53 35° 263° (W) 12:51:49 145.865
ESTCUBE 1 24 Jun 12:46:15 12:50:46 88° 285° (WNW) 12:55:15 437.505/2401.250
Tancredo 1 24 Jun 12:49:28 12:52:05 25° 6° (N) 12:54:43 437.200
ISS 24 Jun 12:51:06 12:53:58 26° 0° (N) 12:56:50 437.550
LO-87 24 Jun 12:51:18 12:54:38 35° 289° (WNW) 12:57:59 145.935 - 145.965
VELOX 1 24 Jun 12:54:25 12:58:15 28° 96° (E) 13:02:04 145.980
Gurwin Techsat 1B 24 Jun 13:18:32 13:23:27 40° 67° (ENE) 13:28:22 435.225
DX 1 24 Jun 13:19:15 13:22:11 17° 92° (E) 13:25:06 434.975-435.025
POLYITAN 1 24 Jun 13:22:24 13:24:38 14° 270° (W) 13:26:53 437.675
SPROUT 24 Jun 13:25:55 13:30:13 67° 101° (E) 13:34:30 437.525
AO-7 24 Jun 13:35:57 13:42:05 24° 48° (NE) 13:48:13 .
PCSat 24 Jun 13:38:54 13:44:15 60° 306° (NW) 13:49:39 145.827
UKube-1 24 Jun 13:39:08 13:42:15 19° 93° (E) 13:45:20 .
BUGSAT 1 24 Jun 13:52:37 13:55:56 23° 266° (W) 13:59:18 437.445
Oscar 19 24 Jun 14:15:39 14:20:33 43° 262° (W) 14:25:28 437.125/150
50 SAT 24 Jun 14:22:59 14:26:20 54° 286° (WNW) 14:29:40 437.505
Tancredo 1 24 Jun 14:25:02 14:28:04 64° 26° (NNE) 14:31:06 437.200
ESTCUBE 1 24 Jun 14:25:28 14:26:51 11° 302° (WNW) 14:28:14 437.505/2401.250
ISS 24 Jun 14:27:47 14:30:58 44° 20° (NNE) 14:34:10 437.550
VELOX 1 24 Jun 14:30:46 14:34:41 31° 293° (WNW) 14:38:35 145.980
ITAMSAT 1 24 Jun 14:50:10 14:54:55 37° 66° (ENE) 14:59:42 435.822/435.867
DX 1 24 Jun 14:54:25 14:58:38 49° 289° (WNW) 15:02:51 434.975-435.025
Gurwin Techsat 1B 24 Jun 14:58:50 15:03:27 30° 265° (W) 15:08:08 435.225
SPROUT 24 Jun 15:03:18 15:05:36 14° 299° (WNW) 15:07:53 437.525
UKube-1 24 Jun 15:14:21 15:18:28 44° 290° (WNW) 15:22:34 .
SO-50 24 Jun 15:18:52 15:23:24 74° 123° (ESE) 15:27:56 436.795
AO-7 24 Jun 15:25:24 15:33:44 85° 69° (ENE) 15:42:09 .
PCSat 24 Jun 15:25:42 15:28:49 15° 328° (NNW) 15:31:57 145.827
MOZHAYETS 4 24 Jun 15:53:10 15:57:17 31° 96° (E) 16:01:20
ITUPSAT 1 24 Jun 15:59:53 16:04:36 53° 100° (E) 16:09:16 437.325
Tancredo 1 24 Jun 16:01:10 16:03:24 19° 223° (SW) 16:05:37 437.200
ISS 24 Jun 16:04:21 16:07:26 36° 218° (SW) 16:10:29 437.550
BEESAT 24 Jun 16:10:44 16:15:31 69° 103° (ESE) 16:20:16 436.000
ITAMSAT 1 24 Jun 16:29:50 16:34:25 31° 264° (W) 16:39:03 435.822/435.867
CUBESAT XI-V 24 Jun 16:31:37 16:34:24 16° 90° (E) 16:37:09 437.345
DOVE 4 24 Jun 16:40:19 16:43:03 17° 62° (ENE) 16:45:49 437.250
SO-50 24 Jun 17:00:56 17:04:21 20° 323° (NW) 17:07:46 436.795
HO-68 24 Jun 17:01:21 17:03:22 11° 43° (NE) 17:05:23 435.675
NUDT-PHONESAT 24 Jun 17:14:55 17:16:34 13° 62° (ENE) 17:18:13 437.300
AO-7 24 Jun 17:21:18 17:27:27 22° 269° (W) 17:33:41 .
CUTE-I 24 Jun 17:24:26 17:28:51 27° 63° (ENE) 17:33:18 437.470
XW-2F 24 Jun 17:25:13 17:28:04 20° 66° (ENE) 17:30:54 145.980 - 146.000
XW-2D 24 Jun 17:28:04 17:31:07 23° 67° (ENE) 17:34:11 145.860 - 145.880
MOZHAYETS 4 24 Jun 17:30:23 17:34:22 30° 293° (WNW) 17:38:19
LilacSat-2 24 Jun 17:34:32 17:37:51 28° 69° (ENE) 17:41:10 437.200
KKS-1 24 Jun 17:35:39 17:39:58 45° 99° (E) 17:44:15 437.445
XW-2B 24 Jun 17:36:46 17:40:03 27° 69° (ENE) 17:43:21 145.730 - 145.750
ITUPSAT 1 24 Jun 17:38:33 17:42:03 21° 298° (WNW) 17:45:33 437.325
BEESAT 24 Jun 17:49:48 17:52:45 16° 301° (WNW) 17:55:40 436.000
XW-2C 24 Jun 17:51:47 17:55:24 40° 72° (ENE) 17:59:02 145.795 - 145.815
CUTE 1.7 + AOD 2 24 Jun 18:02:31 18:03:26 11° 59° (ENE) 18:04:19 437.475
CUBESAT XI-V 24 Jun 18:07:37 18:12:09 59° 287° (WNW) 18:16:40 437.345
STARS 24 Jun 18:08:49 18:13:04 43° 99° (E) 18:17:17 437.465
KAITUO 1B 24 Jun 18:08:53 18:12:33 49° 73° (ENE) 18:16:14 145.475/437.950
DOVE 4 24 Jun 18:16:20 18:20:21 49° 261° (W) 18:24:31 437.250
HO-68 24 Jun 18:42:35 18:49:23 48° 64° (ENE) 18:56:14 435.675
NUDT-PHONESAT 24 Jun 18:46:17 18:50:00 58° 260° (W) 18:53:44 437.300
XW-2F 24 Jun 18:58:30 19:01:59 33° 263° (W) 19:05:30 145.980 - 146.000
PCSat 24 Jun 19:00:41 19:01:14 10° 22° (NNE) 19:01:46 145.827
XW-2D 24 Jun 19:01:49 19:05:11 29° 264° (W) 19:08:35 145.860 - 145.880
CUTE-I 24 Jun 19:03:34 19:08:39 46° 261° (W) 19:13:48 437.470
LilacSat-2 24 Jun 19:08:55 19:12:06 24° 266° (W) 19:15:18 437.200
XW-2B 24 Jun 19:11:03 19:14:12 24° 265° (W) 19:17:22 145.730 - 145.750
KKS-1 24 Jun 19:12:51 19:16:14 21° 297° (WNW) 19:19:36 437.445
SEEDS 24 Jun 19:19:24 19:23:20 40° 71° (ENE) 19:27:16 437.485
XW-2C 24 Jun 19:27:19 19:29:47 16° 268° (W) 19:32:15 145.795 - 145.815
CUBEBUG 2 24 Jun 19:33:39 19:38:04 48° 71° (ENE) 19:42:37 437.445
CUTE 1.7 + AOD 2 24 Jun 19:34:18 19:38:34 90° 255° (WSW) 19:42:51 437.475
AO-73 24 Jun 19:34:30 19:37:31 18° 62° (ENE) 19:40:32 145.935
RS-15 24 Jun 19:36:55 19:44:11 18° 95° (E) 19:51:29 29.354- 29.394
KAITUO 1B 24 Jun 19:45:00 19:46:51 13° 270° (W) 19:48:40 145.475/437.950
STARS 24 Jun 19:45:45 19:49:08 22° 296° (WNW) 19:52:30 437.465
STRAND 1 24 Jun 19:51:38 19:56:12 31° 95° (E) 20:00:43 437.568
XW-2A 24 Jun 19:53:53 19:57:17 64° 259° (W) 20:00:44 145.665 - 145.685
Oscar 11 24 Jun 20:02:29 20:05:58 24° 66° (ENE) 20:09:27 .
ZACube-1 24 Jun 20:07:23 20:11:35 38° 69° (ENE) 20:15:51 437.345
UWE-3 24 Jun 20:09:33 20:14:06 68° 74° (ENE) 20:18:46 435.000/436.395/437.385
AAUSAT CUBESAT 2 24 Jun 20:13:30 20:17:37 74° 74° (ENE) 20:21:44 437.432
YUBILEINY 24 Jun 20:27:09 20:29:49 12° 70° (ENE) 20:32:30 435.215
HO-68 24 Jun 20:30:40 20:37:15 38° 263° (W) 20:43:52 435.675
PCSat 24 Jun 20:41:30 20:46:25 33° 46° (NE) 20:51:17 145.827
AO-85 24 Jun 20:55:00 20:58:39 32° 117° (ESE) 21:02:12 145.980
SEEDS 24 Jun 20:56:07 20:59:11 19° 268° (W) 21:02:15 437.485
AO-73 24 Jun 21:08:48 21:13:17 58° 260° (W) 21:17:50 145.935
CUBEBUG 2 24 Jun 21:11:35 21:14:57 20° 269° (W) 21:18:23 437.445
EO-88 24 Jun 21:29:50 21:33:09 33° 70° (ENE) 21:36:29 145.990 - 145.960
STRAND 1 24 Jun 21:30:41 21:35:24 37° 293° (WNW) 21:40:06 437.568
BEESAT 3 24 Jun 21:32:25 21:36:12 44° 119° (ESE) 21:40:03 437.485
Oscar 11 24 Jun 21:37:55 21:41:55 36° 263° (W) 21:45:57 .
RS-15 24 Jun 21:42:16 21:54:18 71° 118° (ESE) 22:06:33 29.354- 29.394
ZACube-1 24 Jun 21:44:15 21:47:58 24° 267° (W) 21:51:43 437.345
NO-84 24 Jun 21:44:32 21:47:20 19° 126° (SE) 21:50:14 435.350 FM
M-CUBED/EXP-1 PRIME 24 Jun 21:46:16 21:48:02 13° 98° (E) 21:49:51 437.505
TIGRISAT 24 Jun 21:47:49 21:49:17 11° 87° (E) 21:50:44 435.000
UWE-3 24 Jun 21:48:37 21:51:02 14° 272° (W) 21:53:30 435.000/436.395/437.385
DELFI C3 24 Jun 21:49:35 21:53:30 87° 76° (ENE) 21:57:27 145.870
AAUSAT CUBESAT 2 24 Jun 21:52:55 21:53:34 10° 272° (W) 21:54:13 437.432
PRISM 24 Jun 21:57:32 21:59:31 13° 91° (E) 22:01:31 437.425
O/OREOS (USA 219) 24 Jun 21:57:33 22:01:52 45° 108° (ESE) 22:06:12 437.305
LO-87 24 Jun 21:58:48 21:59:23 10° 61° (ENE) 22:00:00 145.935 - 145.965
SO-50 24 Jun 22:08:15 22:11:45 21° 37° (NE) 22:15:14 436.795
ESTCUBE 1 24 Jun 22:13:34 22:15:47 14° 60° (ENE) 22:18:01 437.505/2401.250
YUBILEINY 24 Jun 22:16:02 22:24:37 61° 91° (E) 22:33:16 435.215
FO-29 24 Jun 22:22:17 22:29:48 48° 97° (E) 22:37:17 435.910
PCSat 24 Jun 22:24:47 22:29:58 46° 246° (WSW) 22:35:06 145.827
UNISAT 6 24 Jun 22:27:30 22:31:40 31° 95° (E) 22:35:44 437.425
BEESAT 2 24 Jun 22:28:53 22:32:49 63° 122° (ESE) 22:36:50 435.950
AO-85 24 Jun 22:35:32 22:39:02 28° 316° (NW) 22:42:29 145.980
EO-88 24 Jun 23:04:19 23:06:55 18° 267° (W) 23:09:31 145.990 - 145.960
BEESAT 3 24 Jun 23:10:41 23:13:58 24° 318° (NW) 23:17:17 437.485
M-CUBED/EXP-1 PRIME 24 Jun 23:19:07 23:22:42 54° 292° (WNW) 23:26:31 437.505
NO-84 24 Jun 23:20:23 23:24:25 76° 325° (NW) 23:28:44 435.350 FM
TIGRISAT 24 Jun 23:21:53 23:26:36 83° 285° (WNW) 23:31:12 435.000
LO-87 24 Jun 23:28:47 23:32:17 64° 259° (WSW) 23:35:52 145.935 - 145.965
PRISM 24 Jun 23:31:07 23:35:10 58° 287° (WNW) 23:39:12 437.425
O/OREOS (USA 219) 24 Jun 23:37:52 23:41:29 23° 307° (NW) 23:45:07 437.305
QB50P2 24 Jun 23:39:35 23:41:14 12° 89° (E) 23:42:52 145.880/145.840
ESTCUBE 1 24 Jun 23:47:29 23:51:59 76° 257° (WSW) 23:56:31 437.505/2401.250
SO-50 24 Jun 23:48:08 23:52:39 69° 237° (WSW) 23:57:09 436.795
VELOX 1 24 Jun 23:53:33 23:57:27 32° 68° (ENE) 00:01:23 145.980
RS-15 24 Jun 23:55:56 00:07:41 48° 324° (NW) 00:19:32 29.354- 29.394
EO-79 25 Jun 00:03:10 00:06:20 20° 92° (E) 00:09:28 145.935-145.965
UNISAT 6 25 Jun 00:04:12 00:08:20 31° 293° (WNW) 00:12:21 437.425
FO-29 25 Jun 00:07:28 00:14:40 43° 296° (WNW) 00:21:55 435.910
BEESAT 2 25 Jun 00:08:01 00:10:58 19° 322° (NW) 00:13:57 435.950
YUBILEINY 25 Jun 00:14:10 00:21:56 34° 293° (WNW) 00:29:48 435.215
DX 1 25 Jun 00:16:48 00:20:01 21° 63° (ENE) 00:23:15 434.975-435.025
DUCHIFAT 1 25 Jun 00:18:04 00:21:28 23° 94° (E) 00:24:50 145.980
SPROUT 25 Jun 00:20:53 00:25:05 65° 74° (ENE) 00:29:22 437.525
NANOSAT C BR1 25 Jun 00:25:49 00:29:37 30° 96° (E) 00:33:22 145.865
AIST 2D 25 Jun 00:28:13 00:31:45 84° 103° (ESE) 00:35:13 435.315
UKube-1 25 Jun 00:35:35 00:38:54 22° 64° (ENE) 00:42:13 .
50 SAT 25 Jun 00:56:24 00:59:45 71° 75° (ENE) 01:03:08 437.505
NO-84 25 Jun 00:58:57 01:02:35 27° 346° (NNW) 01:06:20 435.350 FM
TIGRISAT 25 Jun 01:00:58 01:02:28 11° 303° (WNW) 01:03:59 435.000
POLYITAN 1 25 Jun 01:02:23 01:06:42 83° 101° (E) 01:10:59 437.675
QB50P2 25 Jun 01:13:13 01:17:30 69° 286° (WNW) 01:21:44 145.880/145.840
VELOX 1 25 Jun 01:30:15 01:33:55 26° 265° (W) 01:37:38 145.980
BUGSAT 1 25 Jun 01:31:02 01:35:07 42° 98° (E) 01:39:08 437.445
Gurwin Techsat 1B 25 Jun 01:34:16 01:36:28 12° 87° (E) 01:38:40 435.225
ITUPSAT 1 25 Jun 01:34:38 01:36:13 12° 56° (NE) 01:37:47 437.325
EO-79 25 Jun 01:38:14 01:42:16 41° 290° (WNW) 01:46:17 145.935-145.965
BEESAT 25 Jun 01:44:06 01:46:38 14° 58° (ENE) 01:49:08 436.000
DX 1 25 Jun 01:51:49 01:55:55 42° 261° (W) 02:00:04 434.975-435.025
DUCHIFAT 1 25 Jun 01:53:19 01:57:13 35° 291° (WNW) 02:01:05 145.980
FO-29 25 Jun 01:56:06 01:57:47 11° 316° (NW) 01:59:29 435.910
SPROUT 25 Jun 01:59:32 02:01:27 13° 271° (W) 02:03:22 437.525
NANOSAT C BR1 25 Jun 02:01:37 02:05:14 27° 293° (WNW) 02:08:49 145.865
UKube-1 25 Jun 02:10:41 02:14:41 39° 261° (W) 02:18:45 .
RS-15 25 Jun 02:13:41 02:24:12 30° 357° (N) 02:34:33 29.354- 29.394
Oscar 19 25 Jun 02:24:33 02:29:36 55° 101° (E) 02:34:37 437.125/150
NO-84 25 Jun 02:37:42 02:41:14 24° 7° (N) 02:44:48 435.350 FM
POLYITAN 1 25 Jun 02:40:20 02:41:50 12° 301° (WNW) 02:43:20 437.675
MOZHAYETS 4 25 Jun 02:56:47 03:01:05 39° 69° (ENE) 03:05:24
ITAMSAT 1 25 Jun 03:03:55 03:04:28 10° 86° (E) 03:05:01 435.822/435.867
BUGSAT 1 25 Jun 03:07:02 03:10:11 20° 296° (WNW) 03:13:19 437.445
ITUPSAT 1 25 Jun 03:08:25 03:13:13 79° 74° (ENE) 03:18:04 437.325
Gurwin Techsat 1B 25 Jun 03:11:47 03:17:09 90° 103° (ESE) 03:22:29 435.225
BEESAT 25 Jun 03:18:57 03:23:44 81° 255° (WSW) 03:28:34 436.000
AO-7 25 Jun 03:25:30 03:31:59 24° 92° (E) 03:38:25 .
CUBESAT XI-V 25 Jun 03:36:47 03:40:13 21° 64° (ENE) 03:43:40 437.345
AO-85 25 Jun 03:44:40 03:45:57 11° 31° (NNE) 03:47:15 145.980
Oscar 19 25 Jun 04:04:41 04:08:33 22° 299° (WNW) 04:12:24 437.125/150
BEESAT 3 25 Jun 04:11:15 04:12:30 11° 30° (NNE) 04:13:44 437.485
